Location: Recife
(8.0585°S, 34.8848°W)
Time: 10:29:58
(UTC-03:00)

Courier 1B Rocket - Pass Details

Date: 23 April 2026
Orbit: 920 x 1201 km, 28.2° (Epoch: 13 May)

Event Time Altitude Azimuth Distance (km) Brightness Sun altitude
Rises 00:20:53 0° 311° (NW) 3,672 - -73.9°
Reaches altitude 10° 00:23:40 10° 316° (NW) 2,689 - -73.2°
Maximum altitude 00:29:53 50° 30° (NNE) 1,169 - -71.8°
Drops below altitude 10° 00:35:54 10° 104° (ESE) 2,608 - -70.3°
Sets 00:38:34 0° 109° (ESE) 3,551 - -69.7°
